Location: New Plymouth
(39.0670°S, 174.0830°E)
Time: 04:00:14
(UTC+13:00)

NOAA 11 - Pass Details

Date: 24 January 2019
Orbit: 832 x 850 km, 98.4° (Epoch: 20 October)

Event Time Altitude Azimuth Distance (km) Brightness Sun altitude
Rises 21:30:47 0° 162° (SSE) 3,448 7.6 -8.3°
Reaches altitude 10° 21:33:14 10° 157° (SSE) 2,507 6.8 -8.7°
Maximum altitude 21:38:41 54° 80° (E) 1,040 4.4 -9.6°
Drops below altitude 10° 21:44:04 10° 3° (N) 2,478 6.3 -10.5°
Sets 21:46:29 0° 358° (N) 3,405 7.0 -10.9°
